TimePDT,TemperatureF,Dew PointF,Humidity,Sea Level PressureIn,VisibilityMPH,Wind Direction,Wind SpeedMPH,Gust SpeedMPH,PrecipitationIn,Events,Conditions,WindDirDegrees,DateUTC
12:52 AM,69.1,44.1,40,29.85,10.0,SW,3.5,-,N/A,,Clear,230,2013-06-07 07:52:00
1:52 AM,66.9,46.0,47,29.85,10.0,West,4.6,-,N/A,,Clear,260,2013-06-07 08:52:00
2:52 AM,66.0,46.9,50,29.85,10.0,WSW,4.6,-,N/A,,Clear,240,2013-06-07 09:52:00
3:52 AM,66.0,45.0,47,29.86,10.0,West,8.1,-,N/A,,Clear,260,2013-06-07 10:52:00
4:52 AM,62.1,45.0,53,29.87,10.0,Calm,Calm,-,N/A,,Clear,0,2013-06-07 11:52:00
5:52 AM,64.9,46.0,50,29.88,10.0,SW,5.8,-,N/A,,Clear,230,2013-06-07 12:52:00
6:52 AM,66.9,46.0,47,29.89,10.0,SW,4.6,-,N/A,,Clear,230,2013-06-07 13:52:00
7:52 AM,72.0,45.0,38,29.88,10.0,WSW,8.1,-,N/A,,Clear,240,2013-06-07 14:52:00
8:52 AM,75.0,44.1,33,29.89,10.0,West,8.1,-,N/A,,Clear,260,2013-06-07 15:52:00
9:52 AM,78.1,45.0,31,29.89,10.0,WSW,10.4,-,N/A,,Clear,240,2013-06-07 16:52:00
10:52 AM,80.1,45.0,29,29.89,10.0,West,16.1,20.7,N/A,,Clear,270,2013-06-07 17:52:00
11:52 AM,84.0,45.0,25,29.90,10.0,WSW,11.5,-,N/A,,Clear,240,2013-06-07 18:52:00
12:52 PM,86.0,48.9,28,29.87,10.0,WSW,19.6,26.5,N/A,,Clear,240,2013-06-07 19:52:00
1:52 PM,88.0,50.0,27,29.85,10.0,West,19.6,28.8,N/A,,Clear,260,2013-06-07 20:52:00
2:52 PM,87.1,48.9,27,29.84,10.0,WSW,25.3,35.7,N/A,,Scattered Clouds,250,2013-06-07 21:52:00
3:52 PM,86.0,46.9,26,29.85,10.0,WSW,25.3,34.5,N/A,,Clear,250,2013-06-07 22:52:00
4:52 PM,84.0,46.0,26,29.86,10.0,WSW,23.0,28.8,N/A,,Partly Cloudy,250,2013-06-07 23:52:00
5:52 PM,82.0,46.9,29,29.85,10.0,WSW,20.7,25.3,N/A,,Clear,250,2013-06-08 00:52:00
6:52 PM,80.1,46.0,30,29.86,10.0,West,16.1,-,N/A,,Clear,260,2013-06-08 01:52:00
7:52 PM,78.1,30.0,17,29.87,10.0,West,18.4,-,N/A,,Clear,280,2013-06-08 02:52:00
8:52 PM,73.0,27.0,18,29.89,10.0,WNW,19.6,-,N/A,,Clear,300,2013-06-08 03:52:00
9:52 PM,68.0,37.0,32,29.91,10.0,West,20.7,-,N/A,,Clear,260,2013-06-08 04:52:00
10:52 PM,66.9,33.1,28,29.94,10.0,WNW,9.2,-,N/A,,Clear,290,2013-06-08 05:52:00
11:52 PM,64.9,32.0,29,29.94,10.0,WNW,12.7,23.0,N/A,,Clear,290,2013-06-08 06:52:00